When you browse on this site, cookies collect data to enhance your experience and personalize the content and advertising you see.
Visit our Privacy Policy to learn more. By continuing to use the site, you agree to this use of cookies and data.
  • In Czech Republic
  • List of Countries
  • For 7 days
  • Water Temperature
  • Satellite Maps
  • Weather Map
  • Weather Widgets
  • user-avatar
    Login

    Hourly Weather Plymouth

    Today, 13 December, Thursday

    Time Temperature Precipitation Wind Pressure Humidity
    00:00 +4°C° 0 mm 11 mps 755 mmHg 80%
    01:00 +4°C° 0.1 mm 12 mps 755 mmHg 79%
    02:00 +3°C° 0.1 mm 12 mps 754 mmHg 78%
    03:00 +3°C° 0.1 mm 12 mps 754 mmHg 76%
    04:00 +3°C° 0.1 mm 12 mps 754 mmHg 75%
    05:00 +3°C° 0.1 mm 12 mps 754 mmHg 74%
    06:00 +3°C° 0.1 mm 12 mps 753 mmHg 73%
    07:00 +3°C° 0.2 mm 12 mps 754 mmHg 72%
    08:00 +3°C° 0.2 mm 12 mps 754 mmHg 72%
    09:00 +3°C° 0.2 mm 12 mps 754 mmHg 72%
    10:00 +3°C° 0.1 mm 12 mps 754 mmHg 72%
    11:00 +4°C° 0.1 mm 12 mps 754 mmHg 72%
    12:00 +4°C° 0.1 mm 12 mps 755 mmHg 71%
    13:00 +4°C° 0 mm 12 mps 755 mmHg 72%
    14:00 +4°C° 0 mm 11 mps 755 mmHg 72%
    15:00 +4°C° 0 mm 11 mps 756 mmHg 72%
    16:00 +4°C° 0 mm 11 mps 756 mmHg 73%
    17:00 +5°C° 0 mm 10 mps 757 mmHg 73%
    18:00 +5°C° 0 mm 10 mps 758 mmHg 73%
    19:00 +5°C° 0 mm 9 mps 758 mmHg 74%
    20:00 +5°C° 0 mm 9 mps 759 mmHg 74%
    21:00 +4°C° 0 mm 8 mps 760 mmHg 75%
    22:00 +4°C° 0 mm 8 mps 760 mmHg 76%
    23:00 +4°C° 0 mm 8 mps 760 mmHg 77%

    Tomorrow, 14 December, Friday

    Time Temperature Precipitation Wind Pressure Humidity
    00:00 +4°C° 0 mm 7 mps 761 mmHg 78%
    01:00 +4°C° 0 mm 7 mps 761 mmHg 77%
    02:00 +3°C° 0 mm 7 mps 761 mmHg 76%
    03:00 +3°C° 0 mm 7 mps 762 mmHg 75%
    04:00 +3°C° 0 mm 6 mps 762 mmHg 76%
    05:00 +3°C° 0 mm 6 mps 762 mmHg 76%
    06:00 +2°C° 0 mm 6 mps 762 mmHg 77%
    07:00 +2°C° 0 mm 6 mps 763 mmHg 77%
    08:00 +2°C° 0 mm 7 mps 763 mmHg 76%
    09:00 +3°C° 0 mm 7 mps 763 mmHg 76%
    10:00 +3°C° 0 mm 7 mps 763 mmHg 74%
    11:00 +4°C° 0 mm 7 mps 763 mmHg 72%
    12:00 +5°C° 0 mm 7 mps 764 mmHg 70%
    13:00 +5°C° 0 mm 7 mps 763 mmHg 71%
    14:00 +4°C° 0 mm 7 mps 763 mmHg 71%
    15:00 +4°C° 0 mm 7 mps 762 mmHg 71%
    16:00 +4°C° 0 mm 7 mps 762 mmHg 71%
    17:00 +4°C° 0 mm 8 mps 762 mmHg 72%
    18:00 +4°C° 0 mm 8 mps 762 mmHg 72%
    19:00 +4°C° 0 mm 8 mps 762 mmHg 74%
    20:00 +5°C° 0 mm 9 mps 761 mmHg 77%
    21:00 +5°C° 0 mm 9 mps 761 mmHg 79%
    22:00 +5°C° 0.2 mm 9 mps 760 mmHg 82%
    23:00 +5°C° 0.2 mm 10 mps 760 mmHg 85%

    Day after tomorrow, 15 December, Saturday

    Time Temperature Precipitation Wind Pressure Humidity
    00:00 +6°C° 0.2 mm 10 mps 759 mmHg 88%
    01:00 +6°C° 0.6 mm 11 mps 758 mmHg 89%
    02:00 +5°C° 0.6 mm 12 mps 757 mmHg 90%
    03:00 +5°C° 0.6 mm 12 mps 756 mmHg 91%
    04:00 +7°C° 3 mm 12 mps 755 mmHg 92%
    05:00 +7°C° 3 mm 12 mps 754 mmHg 93%
    06:00 +7°C° 3 mm 11 mps 753 mmHg 94%
    07:00 +8°C° 1.1 mm 10 mps 752 mmHg 95%
    08:00 +10°C° 1.1 mm 9 mps 752 mmHg 96%
    09:00 +11°C° 1.1 mm 7 mps 751 mmHg 96%
    10:00 +11°C° 0.8 mm 8 mps 751 mmHg 96%
    11:00 +12°C° 0.8 mm 9 mps 750 mmHg 96%
    12:00 +12°C° 0.8 mm 9 mps 749 mmHg 96%
    13:00 +12°C° 1.1 mm 11 mps 748 mmHg 95%
    14:00 +12°C° 1.1 mm 12 mps 746 mmHg 94%
    15:00 +13°C° 1.1 mm 14 mps 745 mmHg 94%
    16:00 +12°C° 0.4 mm 14 mps 745 mmHg 89%
    17:00 +10°C° 0.4 mm 15 mps 744 mmHg 84%
    18:00 +9°C° 0.4 mm 16 mps 744 mmHg 79%
    19:00 +9°C° 0.1 mm 15 mps 746 mmHg 77%
    20:00 +8°C° 0.1 mm 14 mps 747 mmHg 75%
    21:00 +6°C° 0.1 mm 14 mps 749 mmHg 73%
    22:00 +7°C° 0.1 mm 13 mps 750 mmHg 73%
    23:00 +6°C° 0.1 mm 11 mps 751 mmHg 73%

    16 December, Sunday

    Time Temperature Precipitation Wind Pressure Humidity
    00:00 +6°C° 0.1 mm 10 mps 752 mmHg 73%
    01:00 +6°C° 0.1 mm 9 mps 752 mmHg 75%
    02:00 +5°C° 0.1 mm 8 mps 752 mmHg 77%
    03:00 +5°C° 0.1 mm 8 mps 752 mmHg 78%
    04:00 +5°C° 0.1 mm 7 mps 752 mmHg 80%
    05:00 +5°C° 0.1 mm 7 mps 753 mmHg 81%
    06:00 +5°C° 0.1 mm 7 mps 753 mmHg 82%
    07:00 +5°C° 0.1 mm 7 mps 753 mmHg 82%
    08:00 +5°C° 0.1 mm 6 mps 753 mmHg 83%
    09:00 +5°C° 0.1 mm 6 mps 753 mmHg 83%
    10:00 +6°C° 0.4 mm 7 mps 753 mmHg 82%
    11:00 +6°C° 0.4 mm 7 mps 753 mmHg 81%
    12:00 +7°C° 0.4 mm 8 mps 753 mmHg 80%
    13:00 +7°C° 0.8 mm 8 mps 753 mmHg 81%
    14:00 +7°C° 0.8 mm 8 mps 753 mmHg 81%
    15:00 +6°C° 0.8 mm 7 mps 753 mmHg 82%
    16:00 +6°C° 0.2 mm 7 mps 754 mmHg 82%
    17:00 +5°C° 0.2 mm 7 mps 754 mmHg 83%
    18:00 +5°C° 0.2 mm 7 mps 755 mmHg 84%
    19:00 +5°C° 0.1 mm 7 mps 755 mmHg 84%
    20:00 +4°C° 0.1 mm 7 mps 756 mmHg 83%
    21:00 +4°C° 0.1 mm 6 mps 756 mmHg 83%
    22:00 +4°C° 0.1 mm 7 mps 757 mmHg 83%
    23:00 +4°C° 0.1 mm 7 mps 757 mmHg 83%

    17 December, Monday

    Time Temperature Precipitation Wind Pressure Humidity
    00:00 +4°C° 0.1 mm 7 mps 758 mmHg 84%
    01:00 +4°C° 0.1 mm 6 mps 758 mmHg 84%
    02:00 +4°C° 0.1 mm 6 mps 758 mmHg 84%
    03:00 +5°C° 0.1 mm 5 mps 758 mmHg 85%
    04:00 +5°C° 0.1 mm 5 mps 758 mmHg 85%
    05:00 +5°C° 0.1 mm 5 mps 758 mmHg 85%
    06:00 +5°C° 0.1 mm 5 mps 759 mmHg 85%
    07:00 +5°C° 0 mm 4 mps 759 mmHg 85%
    08:00 +5°C° 0 mm 4 mps 759 mmHg 85%
    09:00 +5°C° 0 mm 4 mps 760 mmHg 84%
    10:00 +6°C° 0 mm 4 mps 760 mmHg 82%
    11:00 +8°C° 0 mm 5 mps 760 mmHg 80%
    12:00 +9°C° 0 mm 6 mps 760 mmHg 77%
    13:00 +9°C° 0 mm 6 mps 760 mmHg 79%
    14:00 +9°C° 0 mm 7 mps 760 mmHg 80%
    15:00 +9°C° 0 mm 8 mps 759 mmHg 81%
    16:00 +9°C° 0 mm 8 mps 759 mmHg 83%
    17:00 +8°C° 0 mm 9 mps 759 mmHg 85%
    18:00 +8°C° 0 mm 10 mps 758 mmHg 87%
    19:00 +8°C° 0 mm 10 mps 758 mmHg 87%
    20:00 +8°C° 0 mm 11 mps 758 mmHg 86%
    21:00 +9°C° 0 mm 11 mps 757 mmHg 86%
    22:00 +9°C° 0.1 mm 12 mps 757 mmHg 86%
    23:00 +9°C° 0.1 mm 13 mps 756 mmHg 86%

    18 December, Tuesday

    Time Temperature Precipitation Wind Pressure Humidity
    00:00 +9°C° 0.1 mm 13 mps 756 mmHg 86%
    01:00 +9°C° 0.1 mm 14 mps 755 mmHg 85%
    02:00 +9°C° 0.1 mm 14 mps 754 mmHg 84%
    03:00 +9°C° 0.1 mm 15 mps 753 mmHg 83%
    04:00 +9°C° 0.4 mm 15 mps 752 mmHg 82%
    05:00 +9°C° 0.4 mm 15 mps 751 mmHg 82%
    06:00 +9°C° 0.4 mm 15 mps 750 mmHg 81%
    07:00 +9°C° 2 mm 15 mps 750 mmHg 83%
    08:00 +8°C° 2 mm 15 mps 750 mmHg 85%
    09:00 +8°C° 2 mm 15 mps 750 mmHg 87%
    10:00 +8°C° 2.2 mm 13 mps 749 mmHg 88%
    11:00 +8°C° 2.2 mm 11 mps 749 mmHg 90%
    12:00 +8°C° 2.2 mm 9 mps 749 mmHg 91%
    13:00 +9°C° 2.1 mm 7 mps 748 mmHg 92%
    14:00 +8°C° 2.1 mm 6 mps 747 mmHg 94%
    15:00 +8°C° 2.1 mm 4 mps 747 mmHg 95%
    16:00 +8°C° 0.7 mm 4 mps 747 mmHg 94%
    17:00 +8°C° 0.7 mm 5 mps 746 mmHg 93%
    18:00 +7°C° 0.7 mm 5 mps 746 mmHg 92%
    19:00 +7°C° 0 mm 5 mps 746 mmHg 90%
    20:00 +7°C° 0 mm 5 mps 747 mmHg 88%
    21:00 +7°C° 0 mm 6 mps 747 mmHg 86%
    22:00 +7°C° 0.1 mm 5 mps 747 mmHg 87%
    23:00 +7°C° 0.1 mm 5 mps 747 mmHg 87%
    Show more